SCP
-0 -0 -0 -0 -0 -0 0 0 0 0 0 0 -0 0 0 0 0 0 0 0 0 0 0 0 0 0 0 0 0 0 0 0 0 0 0 0 0 0 0 0 0 0 0 0
-0 -0 -0 -0 -0 -0 0 -0 0 0 0 0 0 0 0 0 0 0 0 0 0 0 0 0 0 0 0 0 0 0 0 0 0 0 0 0 0 0 0 0 0 0 0 0
-0 -0 -0 -0 -0 -0 0 -0 0 0 0 0 0 0 0 0 0 0 0 0 0 0 0 0 0 0 0 0 0 0 0 0 0 0 0 0 0 0 0 1 1 0 0 0
-0 -0 -0 -0 -0 -0 0 -0 0 0 0 0 0 0 0 0 0 0 0 0 0 0 0 0 0 0 0 0 0 0 0 0 0 0 0 0 0 0 0 0 0 0 0 0
-0 -0 -0 -0 -0 -0 0 0 0 0 0 0 0 0 0 0 0 0 0 0 0 0 0 0 0 0 0 0 0 0 0 0 0 0 0 0 0 0 0 0 0 0 -0 0
-0 -0 -0 -0 -0 0 0 -0 -0 -0 0 0 0 0 0 0 0 0 0 0 0 0 0 0 0 0 0 0 0 0 0 0 0 0 0 0 0 0 0 0 0 0 0 0
0 0 0 0 0 0 -0 -0 -0 -0 0 0 0 0 0 0 0 0 -0 -0 0 0 0 0 0 0 0 0 0 0 0 0 0 0 0 0 0 0 0 0 0 0 0 0
0 0 0 0 0 -0 -0 -0 -0 -0 -0 0 0 0 0 -0 0 0 0 0 0 0 0 -0 0 0 0 -0 -0 -0 -0 0 0 0 0 0 0 0 0 0 0 0 0 0
0 0 0 -0 -0 -0 -0 0 -0 -0 -0 0 0 -0 0 0 0 0 0 0 0 0 0 -0 -0 -0 -0 -0 0 0 0 0 0 0 0 0 0 0 0 0 0 0 0 0
0 0 -0 -0 -0 -0 -0 0 0 -0 -0 0 0 0 0 0 0 0 0 -0 0 -0 -0 0 0 -0 -0 -0 -0 -0 0 0 0 0 0 0 0 0 0 0 0 0 0 0
0 -0 -0 -0 -0 -0 0 -0 0 0 -0 -0 0 0 0 0 0 0 0 0 0 0 0 0 0 0 -0 0 -0 0 0 0 0 0 0 0 0 0 0 0 0 0 0 0
-0 -0 -0 -0 -0 -0 -0 -0 0 0 0 0 0 0 0 0 0 0 0 0 0 0 0 0 0 -0 -0 -0 0 0 -0 0 -0 -0 -0 -0 0 0 0 0 0 0 0 0
-0 -0 -0 -0 -0 -0 0 -0 0 -0 -0 0 0 0 0 0 0 0 0 0 0 0 0 0 0 -0 -0 -0 0 -0 -0 -0 0 -0 -0 -0 -0 0 0 0 0 0 0 0
-0 -0 -0 -0 -0 0 0 -0 0 0 0 0 0 0 0 0 0 0 0 0 0 0 0 0 0 0 -0 -0 -0 -0 0 0 0 -0 0 -0 0 -0 0 0 0 0 0 0
-0 -0 -0 -0 -0 0 -0 -0 -0 -0 0 0 0 0 0 0 0 0 0 0 0 0 0 0 0 0 0 0 -0 0 0 -0 0 -0 0 0 -0 0 -0 -0 0 0 0 0
-0 -0 -0 -0 -0 -0 -0 0 -0 0 -0 0 0 0 0 0 0 0 0 0 0 0 0 0 0 0 -0 0 0 0 0 -0 -0 -0 0 0 -0 -0 -0 0 0 0 0 0
-0 -0 -0 -0 -0 -0 0 0 -0 0 0 0 0 0 0 0 0 0 0 0 0 0 0 0 0 0 0 0 0 0 0 -0 -0 0 0 -0 -0 -0 -0 -0 0 -0 0 0
-0 -0 -0 -0 -0 0 -0 -0 0 0 0 0 0 0 0 0 0 0 0 0 0 0 0 0 0 0 0 0 0 0 0 -0 -0 0 0 0 0 -0 -0 -0 -0 -0 0 0
-0 -0 -0 -0 0 -0 0 -0 0 0 0 0 0 0 0 0 0 0 0 0 0 0 0 0 0 0 0 0 0 0 0 -0 0 0 -0 -0 -0 -0 -0 -0 -0 -0 -0 0
-0 0 0 0 -0 -0 -0 -0 0 0 0 0 0 0 0 0 0 0 0 0 0 0 0 0 0 0 0 0 0 0 0 0 0 -0 -0 0 0 -0 -0 -0 -0 -0 -0 0
0 0 -0 -0 -0 0 -0 0 0 0 0 -0 0 0 0 0 0 0 0 0 0 0 0 0 0 0 0 0 0 0 0 0 -0 -0 0 0 0 0 0 -0 0 -0 -0 -0
-0 0 0 0 0 0 -0 -0 -0 -0 0 0 -0 0 0 0 0 0 0 0 0 0 0 0 0 0 0 0 0 0 0 0 0 0 0 0 0 0 0 0 0 0 0 0
0 0 0 -0 0 -0 0 -0 0 -0 -0 0 -0 0 0 0 0 0 -0 0 0 0 0 0 0 0 0 0 0 0 0 0 0 0 0 0 0 0 0 0 0 0 0 -0
0 0 0 0 -0 0 -0 0 -0 -0 -0 -0 -0 -0 0 0 0 0 0 0 0 0 0 0 0 0 0 0 0 0 0 0 0 0 0 0 0 0 0 0 0 0 0 0
0 0 0 -0 -0 -0 0 0 0 0 0 0 0 -0 0 0 0 0 0 0 0 0 0 0 0 0 0 0 0 0 0 0 0 0 0 0 0 0 0 0 0 0 0 0
0 0 -0 0 0 0 0 0 0 0 -0 0 0 0 -0 0 0 0 0 0 0 0 0 0 0 0 -0 0 -0 -0 -0 0 -0 0 0 0 0 0 0 0 0 0 0 0
0 0 0 0 0 0 0 0 -0 0 0 0 0 0 0 0 0 0 0 0 -0 0 0 0 0 -0 -0 0 -0 -0 -0 -0 0 -0 -0 -0 -0 -0 0 0 0 0 0 0
Wind_Speed_500mb
68 71 71 68 69 57 35 15 8 20 28 16 23 8 12 18 26 31 30 25 31 31 35 41 44 46 46 59 29 31 42 20 28 44 47 48 41 36 39 28 44 29 30 25
68 69 67 62 55 57 49 20 11 26 28 8 20 29 28 30 21 23 27 24 32 38 34 23 24 32 39 41 20 12 21 13 26 38 39 44 49 48 42 38 19 43 25 29
65 66 65 62 57 40 27 18 6 22 20 29 27 24 16 22 30 20 37 36 34 29 32 33 27 41 38 69 63 16 10 17 32 33 40 35 46 50 45 40 27 40 38 41
61 62 63 63 53 51 27 24 13 20 12 23 30 23 26 26 27 38 42 26 32 38 32 40 39 39 52 66 51 51 38 38 39 53 58 57 56 54 27 30 55 31 40 44
56 59 63 61 55 54 53 24 18 31 13 27 25 32 33 29 32 36 27 28 40 38 35 36 47 47 43 39 52 34 34 18 44 51 60 56 58 61 59 52 46 45 49 45
51 54 58 61 56 46 50 38 24 20 6 20 17 22 25 28 31 18 34 30 29 31 35 50 58 63 65 61 48 46 32 15 21 20 29 40 48 63 57 53 50 45 38 40
46 49 53 54 51 45 40 38 31 26 14 19 20 18 21 23 27 25 29 28 26 35 43 58 62 60 63 64 61 59 44 35 21 20 26 12 21 33 46 49 44 44 38 39
41 46 47 47 48 32 35 38 32 21 15 19 27 31 27 32 33 31 38 38 32 45 51 35 32 38 39 41 55 47 46 38 22 19 24 33 48 37 17 26 41 45 41 40
38 41 43 43 44 41 21 24 33 22 25 20 22 31 32 20 26 30 39 42 51 42 38 23 29 26 31 22 25 30 46 38 27 29 27 39 43 47 84 32 31 27 32 37
35 40 40 40 40 38 24 16 43 26 19 11 23 25 18 30 32 19 35 53 40 30 21 21 13 22 18 18 27 38 23 13 21 26 29 29 27 47 45 12 9 40 35 38
36 37 38 40 38 38 33 16 32 32 15 21 7 20 25 29 31 17 40 26 21 23 18 11 18 14 20 15 14 19 13 8 6 8 11 17 51 15 15 18 37 37 34 30
34 35 37 38 38 38 33 14 24 29 23 31 30 24 17 17 22 25 24 23 29 14 10 11 10 25 18 30 13 18 11 10 11 4 1 16 20 20 36 33 26 30 13 20
32 35 37 36 36 35 32 20 26 31 23 28 11 15 8 12 16 13 14 12 13 12 16 13 8 13 21 17 14 33 10 17 9 14 5 16 26 25 32 35 33 44 30 24
34 36 37 35 32 28 20 17 20 21 17 9 16 11 15 10 15 19 15 25 22 19 29 10 8 10 25 19 29 27 21 21 18 9 30 10 40 34 41 41 22 35 53 52
36 39 36 30 24 18 15 12 10 17 15 12 22 16 17 13 24 24 14 18 22 21 8 8 9 18 16 25 26 10 18 14 15 11 30 20 21 38 47 40 19 51 65 74
36 35 29 22 13 15 18 6 9 16 18 7 8 15 18 21 27 19 9 20 12 8 5 11 15 20 19 9 13 10 50 33 28 16 25 28 23 45 58 15 43 57 69 66
33 31 23 14 16 15 5 7 19 30 10 7 12 7 26 39 22 12 13 20 12 3 6 7 9 14 20 5 7 33 34 24 24 2 6 34 49 48 55 74 72 68 59 54
32 31 18 8 13 10 6 12 37 16 6 3 10 12 15 37 21 15 17 11 14 8 8 10 6 18 9 5 34 41 49 52 60 48 37 38 40 47 62 61 57 65 52 49
27 19 6 5 13 6 13 31 16 7 6 13 9 10 9 30 21 11 8 5 4 10 8 5 16 5 10 21 34 49 41 50 47 45 50 40 43 43 43 44 42 53 47 41
19 15 5 1 13 21 7 6 2 3 2 2 5 21 7 17 14 11 17 5 4 3 5 7 6 5 49 49 46 46 33 30 29 34 36 34 36 34 33 37 39 41 39 38
19 10 9 14 17 7 8 4 6 5 1 5 15 24 20 10 9 7 9 7 9 10 8 8 10 10 41 43 42 40 41 40 39 37 34 34 33 33 34 34 34 35 35 35
8 7 9 8 8 4 9 7 5 10 6 16 19 20 16 12 7 7 11 6 8 10 11 7 5 13 47 38 37 38 35 34 37 33 34 32 32 31 32 32 32 31 30 30
6 6 8 9 6 11 8 14 6 10 21 13 23 17 9 9 5 12 9 13 10 12 8 6 5 29 39 37 34 37 35 19 25 28 29 30 30 28 28 28 27 26 26 24
8 5 8 5 8 10 6 6 9 12 17 25 25 15 6 4 6 6 6 8 9 11 9 8 20 55 41 28 16 23 32 23 13 12 16 19 21 22 23 23 22 22 21 17
9 10 6 10 10 7 12 14 15 17 15 19 19 16 9 7 5 5 7 7 7 6 8 11 41 48 39 28 26 30 31 29 29 20 9 10 12 17 23 21 17 13 13 14
6 11 14 22 14 19 16 19 11 9 13 18 12 8 7 7 6 10 13 7 7 7 18 33 43 48 46 43 46 41 35 29 26 25 15 11 18 19 16 17 20 20 20 19
9 10 20 12 7 11 18 29 16 14 17 7 8 6 10 11 8 8 7 7 16 31 32 34 39 37 43 47 49 51 49 46 32 24 26 22 23 24 25 23 19 20 20 21
Wind_Direction_500mb
7 6 5 2 355 360 10 16 296 359 344 286 240 336 7 343 340 336 327 311 291 297 308 295 287 283 286 299 339 306 300 307 288 258 265 256 260 243 250 230 241 253 269 238
10 9 9 9 8 358 358 344 316 11 12 8 359 4 348 308 360 359 339 319 330 330 316 308 292 295 305 303 334 14 347 283 276 266 261 270 267 265 213 257 242 255 264 268
13 14 15 15 13 11 12 330 336 13 45 43 355 353 341 339 352 7 4 317 311 313 318 312 295 308 307 323 337 0 324 268 264 259 261 260 247 250 242 221 226 240 235 245
16 19 22 24 18 22 22 13 63 5 354 10 344 334 4 354 351 355 346 330 328 340 333 322 308 314 323 318 324 346 343 262 260 264 262 268 277 281 261 252 276 280 291 286
20 23 26 27 29 34 42 32 9 341 328 1 354 16 10 353 343 340 334 336 328 321 312 306 307 311 309 306 314 322 331 316 318 276 256 258 263 271 268 260 229 244 251 255
24 26 28 29 31 47 31 19 1 318 54 5 9 14 351 339 341 347 335 325 315 317 331 325 308 299 292 288 287 290 297 297 336 273 286 284 255 249 259 262 262 267 251 247
25 27 28 28 35 46 32 15 5 352 18 11 32 7 347 341 321 318 310 318 311 325 317 309 295 286 277 263 261 259 262 257 258 283 305 251 268 284 269 272 280 287 289 298
22 25 24 27 30 39 41 13 19 3 325 16 10 352 332 331 337 336 329 343 355 326 314 296 313 299 289 267 236 237 234 240 247 237 265 292 293 289 357 37 319 314 305 327
17 18 19 22 22 28 47 350 11 357 315 37 1 327 1 344 338 330 329 331 336 317 299 312 303 313 331 305 320 301 224 216 226 253 262 254 269 283 293 107 280 337 5 356
12 11 11 14 17 22 28 1 348 355 315 19 351 350 333 329 334 326 327 337 324 326 307 325 336 322 301 349 345 330 323 266 224 231 239 257 340 331 314 241 341 344 7 7
7 5 4 4 7 9 20 13 353 8 333 307 340 336 329 329 342 332 328 322 8 314 347 337 344 332 324 323 333 312 326 327 224 226 239 241 355 327 349 334 332 345 351 5
359 358 355 353 358 2 4 352 344 338 309 278 301 292 297 315 328 323 309 298 316 332 329 347 326 314 312 330 327 342 9 337 315 191 323 236 313 317 325 339 348 310 2 7
352 351 346 345 353 354 357 35 360 345 324 322 36 16 24 332 346 322 300 305 350 339 344 328 298 294 317 325 323 318 326 226 282 335 66 10 39 360 328 338 332 357 10 113
350 344 337 341 343 345 5 50 354 354 325 305 339 6 338 326 336 344 334 286 290 296 307 284 260 274 288 299 294 303 10 343 335 28 26 37 4 355 336 328 338 74 70 92
343 344 343 337 336 0 56 50 324 344 16 312 305 332 14 338 321 314 320 328 291 280 316 260 279 306 341 306 297 341 26 328 354 358 10 359 354 349 337 313 323 103 94 81
343 347 347 345 353 19 18 202 292 343 351 312 308 349 341 348 357 352 17 10 353 259 240 270 289 319 354 305 321 350 347 327 322 347 21 17 3 16 18 111 105 93 98 99
338 337 335 350 19 36 355 353 315 320 359 345 306 340 15 8 17 35 360 327 357 349 271 263 281 298 324 293 291 307 340 332 319 194 107 47 46 35 47 82 87 94 87 87
332 334 332 23 31 7 358 316 339 353 37 325 321 328 341 10 0 0 356 350 335 323 300 288 296 302 338 356 357 35 43 65 72 72 87 85 75 68 51 68 77 87 84 84
339 345 8 142 41 352 295 307 316 48 39 351 346 355 332 342 345 311 306 350 350 297 287 1 356 337 28 28 27 48 57 62 70 74 81 79 73 71 66 62 68 75 76 81
18 5 315 313 322 314 321 332 178 209 224 302 317 356 330 337 328 296 0 280 229 274 353 30 39 54 30 28 42 46 61 72 75 82 80 77 76 78 80 74 78 82 83 83
348 322 350 316 300 303 247 257 299 67 114 38 18 358 340 327 320 313 313 296 277 11 32 22 359 12 1 15 23 39 49 58 65 71 75 76 78 79 82 83 85 87 88 85
337 307 276 302 257 314 335 0 27 28 29 15 356 338 321 306 302 299 311 296 324 19 57 30 40 341 356 15 24 33 40 52 63 71 75 77 80 82 84 85 85 84 82 77
319 341 314 13 5 17 39 3 360 344 347 346 325 325 303 311 278 283 319 351 20 359 38 24 311 331 342 352 21 21 16 55 61 65 71 76 79 79 82 84 83 84 81 76
282 30 359 17 3 38 18 311 302 292 285 304 312 292 252 307 299 310 340 24 37 21 346 14 330 351 355 16 19 4 21 38 79 100 86 85 83 92 89 85 83 78 70 63
1 34 7 17 20 56 358 329 305 295 290 295 301 276 258 259 282 15 0 40 26 360 353 342 352 356 6 23 20 19 35 26 30 32 84 124 122 105 95 84 82 80 73 64
40 38 2 359 22 9 343 355 325 313 310 295 266 285 319 18 351 46 18 26 352 352 311 355 4 23 21 28 16 15 16 16 22 22 28 82 100 93 92 82 78 64 62 52
27 14 20 47 16 313 319 316 330 322 294 315 306 30 13 3 41 36 15 345 342 345 351 10 16 21 23 27 31 20 14 20 32 45 53 62 88 86 83 78 67 52 64 64
Wind_Speed_850mb
68 71 71 68 69 57 35 15 8 20 28 16 23 8 12 18 26 31 30 25 31 31 35 41 44 46 46 59 29 31 42 20 28 44 47 48 41 36 39 28 44 29 30 25
68 69 67 62 55 57 49 20 11 26 28 8 20 29 28 30 21 23 27 24 32 38 34 23 24 32 39 41 20 12 21 13 26 38 39 44 49 48 42 38 19 43 25 29
65 66 65 62 57 40 27 18 6 22 20 29 27 24 16 22 30 20 37 36 34 29 32 33 27 41 38 69 63 16 10 17 32 33 40 35 46 50 45 40 27 40 38 41
61 62 63 63 53 51 27 24 13 20 12 23 30 23 26 26 27 38 42 26 32 38 32 40 39 39 52 66 51 51 38 38 39 53 58 57 56 54 27 30 55 31 40 44
56 59 63 61 55 54 53 24 18 31 13 27 25 32 33 29 32 36 27 28 40 38 35 36 47 47 43 39 52 34 34 18 44 51 60 56 58 61 59 52 46 45 49 45
51 54 58 61 56 46 50 38 24 20 6 20 17 22 25 28 31 18 34 30 29 31 35 50 58 63 65 61 48 46 32 15 21 20 29 40 48 63 57 53 50 45 38 40
46 49 53 54 51 45 40 38 31 26 14 19 20 18 21 23 27 25 29 28 26 35 43 58 62 60 63 64 61 59 44 35 21 20 26 12 21 33 46 49 44 44 38 39
41 46 47 47 48 32 35 38 32 21 15 19 27 31 27 32 33 31 38 38 32 45 51 35 32 38 39 41 55 47 46 38 22 19 24 33 48 37 17 26 41 45 41 40
38 41 43 43 44 41 21 24 33 22 25 20 22 31 32 20 26 30 39 42 51 42 38 23 29 26 31 22 25 30 46 38 27 29 27 39 43 47 84 32 31 27 32 37
35 40 40 40 40 38 24 16 43 26 19 11 23 25 18 30 32 19 35 53 40 30 21 21 13 22 18 18 27 38 23 13 21 26 29 29 27 47 45 12 9 40 35 38
36 37 38 40 38 38 33 16 32 32 15 21 7 20 25 29 31 17 40 26 21 23 18 11 18 14 20 15 14 19 13 8 6 8 11 17 51 15 15 18 37 37 34 30
34 35 37 38 38 38 33 14 24 29 23 31 30 24 17 17 22 25 24 23 29 14 10 11 10 25 18 30 13 18 11 10 11 4 1 16 20 20 36 33 26 30 13 20
32 35 37 36 36 35 32 20 26 31 23 28 11 15 8 12 16 13 14 12 13 12 16 13 8 13 21 17 14 33 10 17 9 14 5 16 26 25 32 35 33 44 30 24
34 36 37 35 32 28 20 17 20 21 17 9 16 11 15 10 15 19 15 25 22 19 29 10 8 10 25 19 29 27 21 21 18 9 30 10 40 34 41 41 22 35 53 52
36 39 36 30 24 18 15 12 10 17 15 12 22 16 17 13 24 24 14 18 22 21 8 8 9 18 16 25 26 10 18 14 15 11 30 20 21 38 47 40 19 51 65 74
36 35 29 22 13 15 18 6 9 16 18 7 8 15 18 21 27 19 9 20 12 8 5 11 15 20 19 9 13 10 50 33 28 16 25 28 23 45 58 15 43 57 69 66
33 31 23 14 16 15 5 7 19 30 10 7 12 7 26 39 22 12 13 20 12 3 6 7 9 14 20 5 7 33 34 24 24 2 6 34 49 48 55 74 72 68 59 54
32 31 18 8 13 10 6 12 37 16 6 3 10 12 15 37 21 15 17 11 14 8 8 10 6 18 9 5 34 41 49 52 60 48 37 38 40 47 62 61 57 65 52 49
27 19 6 5 13 6 13 31 16 7 6 13 9 10 9 30 21 11 8 5 4 10 8 5 16 5 10 21 34 49 41 50 47 45 50 40 43 43 43 44 42 53 47 41
19 15 5 1 13 21 7 6 2 3 2 2 5 21 7 17 14 11 17 5 4 3 5 7 6 5 49 49 46 46 33 30 29 34 36 34 36 34 33 37 39 41 39 38
19 10 9 14 17 7 8 4 6 5 1 5 15 24 20 10 9 7 9 7 9 10 8 8 10 10 41 43 42 40 41 40 39 37 34 34 33 33 34 34 34 35 35 35
8 7 9 8 8 4 9 7 5 10 6 16 19 20 16 12 7 7 11 6 8 10 11 7 5 13 47 38 37 38 35 34 37 33 34 32 32 31 32 32 32 31 30 30
6 6 8 9 6 11 8 14 6 10 21 13 23 17 9 9 5 12 9 13 10 12 8 6 5 29 39 37 34 37 35 19 25 28 29 30 30 28 28 28 27 26 26 24
8 5 8 5 8 10 6 6 9 12 17 25 25 15 6 4 6 6 6 8 9 11 9 8 20 55 41 28 16 23 32 23 13 12 16 19 21 22 23 23 22 22 21 17
9 10 6 10 10 7 12 14 15 17 15 19 19 16 9 7 5 5 7 7 7 6 8 11 41 48 39 28 26 30 31 29 29 20 9 10 12 17 23 21 17 13 13 14
6 11 14 22 14 19 16 19 11 9 13 18 12 8 7 7 6 10 13 7 7 7 18 33 43 48 46 43 46 41 35 29 26 25 15 11 18 19 16 17 20 20 20 19
9 10 20 12 7 11 18 29 16 14 17 7 8 6 10 11 8 8 7 7 16 31 32 34 39 37 43 47 49 51 49 46 32 24 26 22 23 24 25 23 19 20 20 21
Wind_Direction_850mb
7 6 5 2 355 360 10 16 296 359 344 286 240 336 7 343 340 336 327 311 291 297 308 295 287 283 286 299 339 306 300 307 288 258 265 256 260 243 250 230 241 253 269 238
10 9 9 9 8 358 358 344 316 11 12 8 359 4 348 308 360 359 339 319 330 330 316 308 292 295 305 303 334 14 347 283 276 266 261 270 267 265 213 257 242 255 264 268
13 14 15 15 13 11 12 330 336 13 45 43 355 353 341 339 352 7 4 317 311 313 318 312 295 308 307 323 337 0 324 268 264 259 261 260 247 250 242 221 226 240 235 245
16 19 22 24 18 22 22 13 63 5 354 10 344 334 4 354 351 355 346 330 328 340 333 322 308 314 323 318 324 346 343 262 260 264 262 268 277 281 261 252 276 280 291 286
20 23 26 27 29 34 42 32 9 341 328 1 354 16 10 353 343 340 334 336 328 321 312 306 307 311 309 306 314 322 331 316 318 276 256 258 263 271 268 260 229 244 251 255
24 26 28 29 31 47 31 19 1 318 54 5 9 14 351 339 341 347 335 325 315 317 331 325 308 299 292 288 287 290 297 297 336 273 286 284 255 249 259 262 262 267 251 247
25 27 28 28 35 46 32 15 5 352 18 11 32 7 347 341 321 318 310 318 311 325 317 309 295 286 277 263 261 259 262 257 258 283 305 251 268 284 269 272 280 287 289 298
22 25 24 27 30 39 41 13 19 3 325 16 10 352 332 331 337 336 329 343 355 326 314 296 313 299 289 267 236 237 234 240 247 237 265 292 293 289 357 37 319 314 305 327
17 18 19 22 22 28 47 350 11 357 315 37 1 327 1 344 338 330 329 331 336 317 299 312 303 313 331 305 320 301 224 216 226 253 262 254 269 283 293 107 280 337 5 356
12 11 11 14 17 22 28 1 348 355 315 19 351 350 333 329 334 326 327 337 324 326 307 325 336 322 301 349 345 330 323 266 224 231 239 257 340 331 314 241 341 344 7 7
7 5 4 4 7 9 20 13 353 8 333 307 340 336 329 329 342 332 328 322 8 314 347 337 344 332 324 323 333 312 326 327 224 226 239 241 355 327 349 334 332 345 351 5
359 358 355 353 358 2 4 352 344 338 309 278 301 292 297 315 328 323 309 298 316 332 329 347 326 314 312 330 327 342 9 337 315 191 323 236 313 317 325 339 348 310 2 7
352 351 346 345 353 354 357 35 360 345 324 322 36 16 24 332 346 322 300 305 350 339 344 328 298 294 317 325 323 318 326 226 282 335 66 10 39 360 328 338 332 357 10 113
350 344 337 341 343 345 5 50 354 354 325 305 339 6 338 326 336 344 334 286 290 296 307 284 260 274 288 299 294 303 10 343 335 28 26 37 4 355 336 328 338 74 70 92
343 344 343 337 336 0 56 50 324 344 16 312 305 332 14 338 321 314 320 328 291 280 316 260 279 306 341 306 297 341 26 328 354 358 10 359 354 349 337 313 323 103 94 81
343 347 347 345 353 19 18 202 292 343 351 312 308 349 341 348 357 352 17 10 353 259 240 270 289 319 354 305 321 350 347 327 322 347 21 17 3 16 18 111 105 93 98 99
338 337 335 350 19 36 355 353 315 320 359 345 306 340 15 8 17 35 360 327 357 349 271 263 281 298 324 293 291 307 340 332 319 194 107 47 46 35 47 82 87 94 87 87
332 334 332 23 31 7 358 316 339 353 37 325 321 328 341 10 0 0 356 350 335 323 300 288 296 302 338 356 357 35 43 65 72 72 87 85 75 68 51 68 77 87 84 84
339 345 8 142 41 352 295 307 316 48 39 351 346 355 332 342 345 311 306 350 350 297 287 1 356 337 28 28 27 48 57 62 70 74 81 79 73 71 66 62 68 75 76 81
18 5 315 313 322 314 321 332 178 209 224 302 317 356 330 337 328 296 0 280 229 274 353 30 39 54 30 28 42 46 61 72 75 82 80 77 76 78 80 74 78 82 83 83
348 322 350 316 300 303 247 257 299 67 114 38 18 358 340 327 320 313 313 296 277 11 32 22 359 12 1 15 23 39 49 58 65 71 75 76 78 79 82 83 85 87 88 85
337 307 276 302 257 314 335 0 27 28 29 15 356 338 321 306 302 299 311 296 324 19 57 30 40 341 356 15 24 33 40 52 63 71 75 77 80 82 84 85 85 84 82 77
319 341 314 13 5 17 39 3 360 344 347 346 325 325 303 311 278 283 319 351 20 359 38 24 311 331 342 352 21 21 16 55 61 65 71 76 79 79 82 84 83 84 81 76
282 30 359 17 3 38 18 311 302 292 285 304 312 292 252 307 299 310 340 24 37 21 346 14 330 351 355 16 19 4 21 38 79 100 86 85 83 92 89 85 83 78 70 63
1 34 7 17 20 56 358 329 305 295 290 295 301 276 258 259 282 15 0 40 26 360 353 342 352 356 6 23 20 19 35 26 30 32 84 124 122 105 95 84 82 80 73 64
40 38 2 359 22 9 343 355 325 313 310 295 266 285 319 18 351 46 18 26 352 352 311 355 4 23 21 28 16 15 16 16 22 22 28 82 100 93 92 82 78 64 62 52
27 14 20 47 16 313 319 316 330 322 294 315 306 30 13 3 41 36 15 345 342 345 351 10 16 21 23 27 31 20 14 20 32 45 53 62 88 86 83 78 67 52 64 64